Stündliche Wetter Bolshie Krutcy

Heute, 29 Juli, Donnerstag

Zeit Temperatur Niederschläge Wind Luftdruck Luftfeuchtigkeit
00:00 +16°C° 0 mm 1 m/S 744 mmHg 96%
01:00 +16°C° 0 mm 1 m/S 744 mmHg 96%
02:00 +16°C° 0 mm 1 m/S 744 mmHg 96%
03:00 +18°C° 0 mm 1 m/S 743 mmHg 95%
04:00 +16°C° 0 mm 0 m/S 743 mmHg 94%
05:00 +16°C° 0 mm 0 m/S 743 mmHg 93%
06:00 +18°C° 0 mm 0 m/S 743 mmHg 86%
07:00 +21°C° 0 mm 1 m/S 742 mmHg 80%
08:00 +23°C° 0 mm 1 m/S 742 mmHg 72%
09:00 +24°C° 0 mm 1 m/S 742 mmHg 66%
10:00 +25°C° 0 mm 2 m/S 742 mmHg 59%
11:00 +27°C° 0 mm 3 m/S 742 mmHg 53%
12:00 +27°C° 0 mm 3 m/S 742 mmHg 51%
13:00 +28°C° 0 mm 3 m/S 741 mmHg 49%
14:00 +28°C° 0 mm 3 m/S 741 mmHg 49%
15:00 +28°C° 0 mm 3 m/S 741 mmHg 49%
16:00 +28°C° 0 mm 3 m/S 741 mmHg 48%
17:00 +28°C° 0 mm 3 m/S 741 mmHg 48%
18:00 +26°C° 0 mm 3 m/S 741 mmHg 56%
19:00 +24°C° 0 mm 2 m/S 741 mmHg 64%
20:00 +21°C° 0 mm 2 m/S 741 mmHg 71%
21:00 +20°C° 0 mm 2 m/S 741 mmHg 73%
22:00 +19°C° 0 mm 2 m/S 741 mmHg 75%
23:00 +19°C° 0 mm 2 m/S 741 mmHg 77%

Morgen, 30 Juli, Freitag

Zeit Temperatur Niederschläge Wind Luftdruck Luftfeuchtigkeit
00:00 +18°C° 0 mm 2 m/S 741 mmHg 79%
01:00 +17°C° 0 mm 2 m/S 741 mmHg 81%
02:00 +17°C° 0 mm 2 m/S 741 mmHg 84%
03:00 +17°C° 0 mm 2 m/S 741 mmHg 83%
04:00 +18°C° 0 mm 2 m/S 741 mmHg 82%
05:00 +18°C° 0 mm 2 m/S 741 mmHg 82%
06:00 +20°C° 0 mm 2 m/S 741 mmHg 76%
07:00 +21°C° 0 mm 2 m/S 741 mmHg 71%
08:00 +24°C° 0 mm 3 m/S 741 mmHg 65%
09:00 +22°C° 0.2 mm 3 m/S 741 mmHg 71%
10:00 +22°C° 0.2 mm 3 m/S 741 mmHg 77%
11:00 +21°C° 0.2 mm 3 m/S 741 mmHg 82%
12:00 +21°C° 0.2 mm 3 m/S 741 mmHg 82%
13:00 +21°C° 0.2 mm 3 m/S 741 mmHg 82%
14:00 +21°C° 0.2 mm 2 m/S 741 mmHg 83%
15:00 +22°C° 0.5 mm 3 m/S 740 mmHg 81%
16:00 +22°C° 0.5 mm 3 m/S 740 mmHg 80%
17:00 +24°C° 0.5 mm 3 m/S 740 mmHg 79%
18:00 +21°C° 0.7 mm 3 m/S 740 mmHg 84%
19:00 +20°C° 0.7 mm 2 m/S 739 mmHg 88%
20:00 +18°C° 0.7 mm 2 m/S 739 mmHg 93%
21:00 +18°C° 0.1 mm 2 m/S 739 mmHg 93%
22:00 +17°C° 0.1 mm 2 m/S 739 mmHg 93%
23:00 +17°C° 0.1 mm 2 m/S 739 mmHg 94%

übermorgen, 31 Juli, Samstag

Zeit Temperatur Niederschläge Wind Luftdruck Luftfeuchtigkeit
00:00 +16°C° 0 mm 2 m/S 739 mmHg 94%
01:00 +16°C° 0 mm 2 m/S 739 mmHg 94%
02:00 +15°C° 0 mm 2 m/S 739 mmHg 95%
03:00 +14°C° 0 mm 3 m/S 739 mmHg 94%
04:00 +14°C° 0 mm 3 m/S 739 mmHg 93%
05:00 +14°C° 0 mm 3 m/S 739 mmHg 92%
06:00 +17°C° 0 mm 4 m/S 739 mmHg 80%
07:00 +19°C° 0 mm 5 m/S 739 mmHg 68%
08:00 +21°C° 0 mm 5 m/S 739 mmHg 56%
09:00 +21°C° 0 mm 6 m/S 739 mmHg 55%
10:00 +22°C° 0 mm 7 m/S 739 mmHg 53%
11:00 +22°C° 0 mm 7 m/S 739 mmHg 52%
12:00 +22°C° 0 mm 7 m/S 739 mmHg 53%
13:00 +22°C° 0 mm 7 m/S 740 mmHg 54%
14:00 +22°C° 0 mm 7 m/S 740 mmHg 55%
15:00 +23°C° 0 mm 7 m/S 740 mmHg 53%
16:00 +23°C° 0 mm 6 m/S 740 mmHg 50%
17:00 +24°C° 0 mm 6 m/S 740 mmHg 48%
18:00 +23°C° 0 mm 5 m/S 740 mmHg 53%
19:00 +21°C° 0 mm 4 m/S 741 mmHg 59%
20:00 +20°C° 0 mm 4 m/S 741 mmHg 64%
21:00 +18°C° 0 mm 3 m/S 742 mmHg 72%
22:00 +17°C° 0 mm 3 m/S 742 mmHg 80%
23:00 +16°C° 0 mm 3 m/S 742 mmHg 88%

1 August, Sonntag

Zeit Temperatur Niederschläge Wind Luftdruck Luftfeuchtigkeit
00:00 +16°C° 0 mm 3 m/S 743 mmHg 90%
01:00 +15°C° 0 mm 2 m/S 743 mmHg 93%
02:00 +15°C° 0 mm 2 m/S 743 mmHg 95%
03:00 +15°C° 0 mm 2 m/S 744 mmHg 93%
04:00 +16°C° 0 mm 2 m/S 744 mmHg 91%
05:00 +16°C° 0 mm 2 m/S 744 mmHg 90%
06:00 +18°C° 0 mm 2 m/S 744 mmHg 83%
07:00 +20°C° 0 mm 3 m/S 744 mmHg 76%
08:00 +21°C° 0 mm 3 m/S 744 mmHg 69%
09:00 +22°C° 0 mm 4 m/S 744 mmHg 64%
10:00 +23°C° 0 mm 4 m/S 744 mmHg 60%
11:00 +25°C° 0 mm 4 m/S 744 mmHg 56%
12:00 +23°C° 0 mm 5 m/S 744 mmHg 58%
13:00 +23°C° 0 mm 5 m/S 744 mmHg 60%
14:00 +22°C° 0 mm 5 m/S 744 mmHg 63%
15:00 +22°C° 0 mm 4 m/S 744 mmHg 66%
16:00 +22°C° 0 mm 4 m/S 744 mmHg 69%
17:00 +22°C° 0 mm 4 m/S 743 mmHg 73%
18:00 +21°C° 0 mm 3 m/S 743 mmHg 78%
19:00 +20°C° 0 mm 2 m/S 743 mmHg 83%
20:00 +19°C° 0 mm 2 m/S 743 mmHg 87%
21:00 +19°C° 0 mm 2 m/S 743 mmHg 90%
22:00 +18°C° 0 mm 2 m/S 743 mmHg 93%
23:00 +18°C° 0 mm 2 m/S 743 mmHg 96%

2 August, Montag

Zeit Temperatur Niederschläge Wind Luftdruck Luftfeuchtigkeit
00:00 +17°C° 0 mm 2 m/S 743 mmHg 96%
01:00 +17°C° 0 mm 2 m/S 743 mmHg 96%
02:00 +16°C° 0 mm 2 m/S 743 mmHg 96%
03:00 +18°C° 0 mm 1 m/S 743 mmHg 95%
04:00 +18°C° 0 mm 1 m/S 743 mmHg 94%
05:00 +18°C° 0 mm 1 m/S 743 mmHg 93%
06:00 +19°C° 0 mm 2 m/S 743 mmHg 83%
07:00 +21°C° 0 mm 2 m/S 743 mmHg 74%
08:00 +24°C° 0 mm 3 m/S 743 mmHg 64%
09:00 +26°C° 0 mm 3 m/S 743 mmHg 57%
10:00 +27°C° 0 mm 3 m/S 743 mmHg 50%
11:00 +29°C° 0 mm 4 m/S 743 mmHg 43%
12:00 +29°C° 0 mm 4 m/S 743 mmHg 40%
13:00 +30°C° 0 mm 4 m/S 742 mmHg 38%
14:00 +30°C° 0 mm 4 m/S 742 mmHg 35%
15:00 +29°C° 0 mm 4 m/S 742 mmHg 41%
16:00 +28°C° 0 mm 3 m/S 741 mmHg 47%
17:00 +26°C° 0 mm 2 m/S 741 mmHg 53%
18:00 +25°C° 0 mm 2 m/S 741 mmHg 59%
19:00 +23°C° 0 mm 2 m/S 740 mmHg 65%
20:00 +21°C° 0 mm 3 m/S 739 mmHg 72%
21:00 +20°C° 0.6 mm 3 m/S 739 mmHg 80%
22:00 +19°C° 0.6 mm 3 m/S 739 mmHg 88%
23:00 +18°C° 0.6 mm 3 m/S 739 mmHg 96%

3 August, Dienstag

Zeit Temperatur Niederschläge Wind Luftdruck Luftfeuchtigkeit
00:00 +18°C° 0 mm 3 m/S 739 mmHg 96%
01:00 +17°C° 0 mm 3 m/S 738 mmHg 97%
02:00 +17°C° 0 mm 3 m/S 738 mmHg 98%
03:00 +17°C° 0.2 mm 4 m/S 738 mmHg 97%
04:00 +18°C° 0.2 mm 4 m/S 738 mmHg 96%
05:00 +18°C° 0.2 mm 4 m/S 738 mmHg 96%
06:00 +17°C° 0.1 mm 5 m/S 739 mmHg 94%
07:00 +17°C° 0.1 mm 5 m/S 739 mmHg 93%
08:00 +16°C° 0.1 mm 5 m/S 740 mmHg 91%
09:00 +17°C° 0.1 mm 6 m/S 740 mmHg 85%
10:00 +17°C° 0.1 mm 6 m/S 741 mmHg 78%
11:00 +19°C° 0.1 mm 6 m/S 742 mmHg 72%
12:00 +21°C° 0 mm 6 m/S 742 mmHg 62%
13:00 +22°C° 0 mm 5 m/S 742 mmHg 53%
14:00 +23°C° 0 mm 5 m/S 743 mmHg 43%
15:00 +23°C° 0.1 mm 5 m/S 743 mmHg 50%
16:00 +22°C° 0.1 mm 5 m/S 743 mmHg 57%
17:00 +21°C° 0.1 mm 5 m/S 743 mmHg 64%
18:00 +19°C° 0.1 mm 4 m/S 743 mmHg 73%
19:00 +18°C° 0.1 mm 3 m/S 744 mmHg 83%
20:00 +16°C° 0.1 mm 3 m/S 744 mmHg 92%
21:00 +14°C° 0.1 mm 3 m/S 744 mmHg 93%
22:00 +14°C° 0.1 mm 3 m/S 744 mmHg 94%
23:00 +14°C° 0.1 mm 2 m/S 745 mmHg 95%
Mehr zeigen

Wir brauchen deine Erlaubnis

Meteoprog und unser Service Anbieter werden persönliche Daten aufbewahren, so wie Cookies, Geräte Bezeichnung oder ähnliche Technologien von deinem Gerät und Prozess, so wie Persönliche Daten Inhalte und Werbungen, genauso wie social Media und den Verkehr zu analysieren.

  • Aufbewahrung und/oder Zugang zu deiner Geräte Informationen.

    Cookies, Geräte Bezeichnung oder andere Informationen, können aufbewahrt oder Zugang zu deinem Gerät erhalten, für den Grund, der oben angegeben wird.

  • Personalisierte Werbung und Inhalte, Messungen, Einblick in das Publikum und Produkt Entwicklung.

    Werbungen und Inhalte können personalisiert werden, basierend auf ein Profil. Mehr Daten können besser personalisierte Werbungen und Inhalte hinzufügen. Werbung und Inhalte können gezeigt und gemessen werden. Einblicke über das Publikum, welche die Werbung gesehen haben und den Inhalt, können abgeleitet werden. So wie Daten können genutzt werden, um es zu verbessern oder die Benutzer Erfahrung zu verbessern das System und die Software.

Wenn du “Ich stimme zu” klickst, erlaubst du uns, die Cookies zu benutzen die Geräte Bezeichnung, den Web oder ähnliche Technologien zu benutzen. Deine Settings, können in deinem Gerät bei deinem Browser geändert werden.

Für den bestimmten Zweck, berechtigten Interessen beruhen darauf, mehr als auf den Inhalt. Du kannst mehr darüber in unseren Privaten und Cookie Politik lesen.